STARLINK-35622, 66103

Orbit data source: Space-Track

STARLINK-35622, 66103 is a payload satellite owned by SpaceX/Seattle (US) in LEO that was launched on Sun, 19 Oct 2025 UTC via an FALCON 9 launch vehicle from the Air Force Western Test Range (AFWTR). Payload-class satellites include a variety of spacecraft equipped with specific instruments for various scientific and technological missions. These include communications satellites like Starlink; space stations such as the ISS; scientific satellites like the Hubble; Earth observation satellites from companies like Planet Labs, Umbra, and HawkEye 360; GPS; miniature CubeSats for education and research; and military/defense satellites.

Loading next visibility...
Identifier
66103, 2025-236T
Orbit
LEO
Country
Flag of USUS
Related business
Manufacturer
SpaceX/Seattle
Mission
Operational Commercial Communications
Bus & Motor
STARLINK V2MO, Unknown motor
Mass
575 kg wet, ~530 kg dry
Launch date (UTC)
2025-10-19 (8 months ago)
Launch vehicle
FALCON 9
Launch site
Air Force Western Test Range (AFWTR)
Object type
Payload
Rocket body
Debris
Shape & HBR
Box + 2 Pan, 17.7 m
Radar Cross Section
36.964 m², Large (>1 m²)

Expand to show TLE details & history
Last TLE update: 1 day ago

TLE from 1 day ago
0 STARLINK-35622
1 66103U 25236T   26170.78544710  .00003469  00000-0  11373-3 0  9996
2 66103  53.1601 349.1014 0001152 100.3729 259.7404 15.34404204 38589
Epoch: 2026-06-19T18:51Z
TLE epoch observation values (Epoch: 2026-06-19T18:51:02.629Z)
Latitude
0.00002°
Longitude
158.33102°
Altitude
463.733 km
Speed
7.636 km/s
True Right ascension
23h 16m 24s
True Declination
0° 00' 00"
Sunlit
Object was in daylight at epoch
Visualization orbit readout
Latitude
Unknown
Longitude
Unknown
Altitude
Unknown
Speed
Unknown
Apparent Right ascension
Unknown
Apparent Declination
Unknown
Sunlit
N/A
Visualization observer readout
Local Sidereal Time
07:23:58
Azimuth
Unknown
Elevation
Unknown
Doppler factor
Unknown
Orbital elements
Apogee altitude
463.736 km
Perigee altitude
462.16 km
Semi-major axis
6,841.085 km
Eccentricity
0.00012
Inclination
53.1601°
RAAN
349.1014°
Arg. of periapsis
100.3729°
True anomaly
259.72741°
Mean anomaly
259.7404°
Eccentric anomaly
259.73391°
Mean motion
3.8358 °/min
Orbital period
93.85 mins
BSTAR
0.00011373
Loading maneuver chart data...
Computing Atmospheric mass density...
Loading historical data...
Loading historical data...
Loading historical data...
Loading historical data...
Loading historical data...
Loading historical data...
Loading historical data...

Documentation

Showing up to 5 results
|